Theta_e
291 291 293 294 294 294 293 295 292 294 295 301 305 306 310 314 314 314 315 316 317 318 319 321 321 322 323 325 326 328 327 328 330 331 331 330 331 331 333 332 331 329 329 327
288 293 293 292 295 295 295 295 295 297 297 305 307 309 311 313 313 314 315 317 318 319 320 320 321 322 323 324 326 327 326 327 329 329 329 331 331 331 331 332 329 328 327 327
287 290 291 289 294 296 296 297 297 294 299 304 305 307 310 315 314 315 316 318 318 319 320 321 322 323 323 324 326 325 325 327 328 329 329 329 329 328 330 331 331 327 326 329
285 289 283 295 301 301 298 299 300 300 302 304 305 308 313 316 317 317 318 319 320 320 321 323 323 323 325 324 325 324 324 325 327 328 329 330 327 328 328 330 330 329 323 323
284 287 292 296 298 297 297 296 300 302 304 305 307 309 310 315 319 320 321 322 322 323 323 324 323 324 323 323 324 323 323 324 326 328 329 330 326 327 327 328 329 329 327 319
287 284 285 294 299 302 301 293 300 301 302 303 307 300 305 316 319 321 322 323 322 323 323 323 323 324 323 322 323 322 323 324 326 328 329 330 329 327 327 329 327 328 327 325
286 286 290 298 300 302 293 293 301 302 303 303 303 309 315 314 319 322 322 323 324 323 322 323 324 323 322 322 322 324 325 325 326 328 330 331 330 327 327 327 326 326 327 327
287 285 286 301 300 294 298 302 302 302 303 303 306 308 310 313 316 321 320 321 322 321 321 323 323 323 322 322 324 325 325 324 325 327 329 329 329 326 326 327 325 324 324 326
290 292 297 301 300 303 303 301 302 303 304 305 306 310 314 316 317 319 320 321 322 321 321 322 323 324 323 324 324 324 324 324 325 327 328 329 329 325 323 325 322 322 322 322
293 295 295 298 300 302 303 303 304 305 305 306 306 310 315 318 318 317 321 320 321 321 320 319 322 324 326 325 324 324 324 324 325 324 326 329 328 326 324 322 321 319 320 321
292 295 296 300 299 300 301 304 304 306 306 307 308 309 313 316 316 316 320 321 322 321 321 320 321 323 325 324 323 324 325 324 324 323 324 327 328 327 325 327 322 321 320 321
290 295 294 295 299 301 301 302 305 304 305 308 309 311 314 317 315 317 320 321 320 322 322 321 321 322 324 323 324 326 323 323 322 322 322 324 325 324 298 305 303 301 303 314
294 299 300 300 302 303 302 302 306 304 306 306 309 313 317 318 317 314 320 320 321 321 321 321 321 321 323 322 323 325 325 325 322 319 321 321 322 322 321 313 299 298 298 299
299 299 298 300 297 300 301 303 305 306 307 307 309 313 319 320 318 316 318 320 322 322 321 321 321 321 322 322 322 324 326 308 322 322 321 321 322 322 322 322 322 322 301 305
298 299 299 300 299 299 301 302 304 304 305 306 308 310 315 320 320 319 320 321 322 322 321 321 320 321 322 322 323 323 324 320 322 322 321 318 322 322 321 321 322 322 324 302
297 297 299 298 298 298 300 301 301 303 304 306 307 309 314 320 322 322 321 321 320 320 320 320 321 323 322 322 323 323 323 310 314 321 320 320 321 321 321 321 321 322 322 321
295 295 297 298 298 299 298 300 301 303 304 305 306 309 314 315 321 322 323 322 322 323 323 322 323 324 323 323 324 322 322 318 308 320 320 320 320 320 321 321 321 321 322 320
302 301 302 301 299 299 299 300 301 303 304 306 307 308 311 314 315 320 323 325 323 323 325 324 325 324 323 323 324 323 322 320 318 319 320 320 321 321 321 321 321 321 322 319
303 303 304 302 303 301 301 301 302 304 305 306 307 307 310 314 316 321 324 325 324 322 324 325 306 315 325 321 320 323 322 320 319 320 321 312 318 321 321 321 321 321 322 321
301 304 304 304 303 303 301 303 304 304 305 307 309 308 309 313 315 318 323 323 323 323 322 326 319 323 325 319 305 323 322 321 320 320 320 320 320 321 321 311 321 322 322 322
301 302 303 303 301 303 303 304 304 304 306 307 308 308 309 314 314 316 320 322 324 321 315 311 322 323 324 317 313 323 323 322 322 323 321 321 321 321 322 322 321 321 322 322
303 301 301 303 302 303 305 306 305 306 306 308 309 309 309 313 314 315 319 320 323 295 314 322 323 305 318 297 321 322 322 322 322 322 322 321 322 321 322 322 322 321 322 323
303 303 302 302 303 305 308 308 309 310 310 310 309 309 310 314 316 315 314 322 319 310 315 321 298 289 289 317 322 323 322 322 322 322 322 322 322 322 322 322 322 322 322 323
302 304 302 303 304 305 305 306 307 309 311 313 312 310 311 313 317 319 320 303 293 298 313 313 305 289 298 323 324 320 323 324 323 323 323 306 323 323 324 323 322 323 323 317
303 303 304 301 300 302 304 306 307 307 308 310 312 315 315 319 317 319 321 321 296 303 322 295 289 291 323 324 320 319 318 321 323 324 324 324 323 323 324 324 324 324 324 324
304 304 304 304 301 302 301 303 303 306 306 305 308 311 313 315 317 317 320 310 320 307 320 322 323 324 324 322 321 321 316 312 313 318 317 323 324 324 324 323 323 322 322 323
305 299 305 304 304 305 301 299 302 301 302 303 302 306 307 310 314 312 306 319 320 320 319 318 318 312 321 321 316 315 310 308 303 310 310 313 314 316 317 317 318 318 317 314
Wind_Speed
15 14 10 6 21 26 25 19 17 10 19 21 15 14 5 7 12 15 15 17 17 18 16 15 14 13 11 10 10 9 8 8 6 5 6 7 6 6 6 6 6 6 7 6
11 11 9 10 8 21 24 22 17 10 18 18 19 7 4 7 13 16 17 17 18 18 18 17 16 14 12 11 10 10 9 8 7 6 7 6 6 5 5 6 6 7 6 7
10 3 6 11 15 12 13 18 23 21 13 5 9 12 10 11 15 18 19 18 20 21 19 17 16 14 13 12 11 10 9 9 8 7 7 6 6 5 6 6 7 6 4 6
4 2 10 2 11 12 13 9 21 21 17 17 20 19 13 9 15 17 18 19 17 17 17 16 15 15 13 12 12 11 10 10 9 9 7 7 8 7 7 6 7 6 4 5
4 6 3 6 11 6 4 6 13 9 12 17 15 12 17 12 14 19 20 20 19 19 19 17 17 15 14 13 13 12 12 11 10 10 9 8 9 7 5 7 6 6 6 5
2 5 12 10 14 5 2 8 14 12 11 11 11 13 17 9 15 15 16 14 17 18 17 17 17 16 16 15 14 14 13 12 11 11 9 9 9 9 6 6 7 6 6 10
6 3 2 13 15 2 10 5 15 13 12 12 9 12 15 19 12 16 17 18 18 19 19 18 18 17 17 16 16 14 13 13 12 11 10 9 9 8 7 7 8 7 8 8
4 4 4 19 6 3 7 9 12 13 12 15 16 21 22 18 16 12 19 20 20 18 17 17 18 18 18 17 16 14 13 13 13 12 9 8 10 8 8 8 8 8 8 7
4 3 6 11 4 4 8 11 13 15 16 16 17 18 18 17 14 12 17 18 19 18 18 17 19 19 19 17 16 16 14 14 14 12 11 10 10 9 8 8 7 7 7 7
4 5 8 7 8 11 13 11 15 15 17 17 17 18 18 18 12 13 15 16 18 19 19 19 19 19 18 19 18 17 16 14 13 13 12 10 9 9 8 8 7 7 7 7
2 6 12 5 13 15 20 16 17 18 17 17 18 18 17 15 13 13 14 16 17 19 18 20 20 20 18 18 19 17 15 14 13 12 13 11 10 9 9 9 8 8 8 7
2 3 4 14 15 19 17 21 20 21 22 20 18 17 16 14 11 12 14 16 16 17 16 18 20 20 19 19 20 17 15 13 12 12 12 10 10 7 7 4 10 5 8 8
5 9 13 17 17 20 16 20 20 20 19 20 20 18 15 13 11 11 13 16 17 21 21 20 20 20 20 20 20 19 16 14 12 12 12 12 11 11 10 4 4 6 9 9
12 13 10 6 10 17 16 18 19 18 17 17 19 18 15 13 9 11 15 18 17 16 18 19 20 21 21 21 21 19 16 15 14 13 13 12 12 11 10 10 10 10 7 8
11 9 14 16 18 19 16 15 19 16 17 19 19 18 17 15 11 8 10 11 13 14 15 17 19 18 20 21 20 20 16 14 14 13 13 13 12 12 11 11 10 10 9 4
18 18 17 17 19 20 17 14 16 16 17 18 18 21 19 14 11 9 6 11 15 16 19 19 19 19 20 20 19 16 16 16 14 13 12 13 12 12 12 11 11 10 10 11
15 15 16 17 17 19 16 12 14 16 16 17 18 19 18 17 13 11 8 6 11 12 14 17 18 19 21 20 19 14 13 14 13 14 14 14 13 13 12 11 11 11 11 11
14 17 19 19 18 18 16 13 13 15 15 16 17 16 16 15 14 13 11 9 6 8 11 13 14 16 19 21 18 14 13 13 15 15 13 14 14 13 13 13 12 12 11 10
14 15 14 16 19 17 15 15 13 15 14 14 15 15 15 12 12 13 11 10 6 5 4 8 10 14 16 18 18 14 14 15 15 14 13 12 12 14 13 13 13 13 12 12
18 15 13 12 15 15 15 14 13 15 12 14 13 13 13 12 13 13 10 6 6 5 8 6 11 15 15 15 14 14 15 16 16 14 14 14 14 14 14 13 14 13 12 12
17 16 14 7 8 12 12 12 11 13 13 12 13 12 11 12 11 11 11 6 8 8 8 7 9 10 11 12 14 13 14 14 13 13 14 14 13 14 14 14 14 13 13 12
16 15 13 10 5 7 7 9 11 13 13 14 14 11 10 10 9 10 8 6 7 7 7 3 3 3 6 9 14 14 14 15 13 12 12 12 12 13 14 13 13 12 13 12
15 16 14 14 11 10 8 8 9 11 11 13 12 13 8 6 4 5 8 4 5 7 8 4 2 3 5 9 11 11 11 12 13 13 12 12 12 12 12 13 13 12 11 12
14 18 15 14 13 11 12 11 12 11 10 9 9 7 6 6 5 4 5 4 5 7 7 5 5 3 10 6 6 4 2 6 7 8 10 11 11 11 11 11 11 11 11 9
12 14 14 15 15 10 11 13 10 10 12 10 10 8 6 2 4 6 5 4 4 5 5 5 7 6 5 7 5 6 12 1 7 3 9 8 10 10 10 10 11 11 10 10
9 9 9 13 8 8 10 9 8 8 9 10 9 8 7 7 6 5 6 6 5 5 5 3 5 3 4 9 8 10 8 5 3 6 9 7 7 9 9 9 8 8 8 8
7 6 8 9 9 9 8 10 9 9 8 8 10 11 11 9 9 7 7 7 6 4 4 3 2 4 4 5 9 9 8 10 9 6 5 5 4 3 4 3 1 3 2 2
Wind_Direction
275 276 286 290 220 210 214 216 222 195 218 249 253 292 335 169 163 158 170 170 174 176 179 183 185 184 177 179 179 177 167 172 172 154 134 116 112 101 95 93 104 114 123 122
265 231 252 273 258 226 217 214 218 210 227 230 252 281 239 177 180 174 181 179 176 181 181 185 185 185 175 176 180 177 171 174 165 171 154 137 124 119 103 100 113 125 126 135
219 103 307 263 238 220 226 217 221 225 226 257 251 257 252 194 186 195 183 180 182 184 184 184 185 182 178 177 174 181 177 169 169 172 164 148 123 128 119 112 119 100 96 124
287 216 231 215 28 211 199 207 229 239 247 251 253 263 269 217 201 201 189 185 182 179 184 185 183 180 176 173 176 181 183 173 173 175 168 151 133 129 119 125 127 122 112 105
266 221 323 117 25 6 215 132 15 354 283 266 301 309 273 238 206 198 208 181 181 178 178 176 179 176 174 175 179 181 188 181 178 177 172 163 143 137 125 133 133 117 115 117
269 236 213 38 342 327 246 165 7 353 335 328 332 246 262 260 207 204 194 196 174 171 172 175 179 172 176 176 181 187 187 187 178 182 178 176 151 143 140 136 126 123 108 117
219 272 275 353 327 211 191 38 341 335 326 311 285 261 305 317 279 211 188 179 168 167 173 178 171 173 182 178 187 190 184 185 179 180 183 174 156 146 141 140 126 123 125 123
202 223 219 1 11 48 2 327 333 333 317 306 295 288 290 288 291 228 176 170 174 169 172 174 173 175 183 187 186 182 180 182 182 178 183 170 163 149 146 146 137 130 130 135
236 42 349 349 309 355 340 332 337 325 324 314 306 294 291 284 271 234 204 175 176 173 168 173 178 181 182 188 178 176 178 182 180 179 179 174 170 161 157 162 160 155 151 140
243 52 337 324 36 359 344 333 332 331 323 322 316 307 298 284 257 238 197 193 173 169 175 177 182 185 192 173 179 178 178 179 178 178 179 179 179 175 174 176 174 173 169 156
296 9 331 256 343 340 333 331 334 334 336 330 325 312 303 285 251 230 205 188 181 176 181 183 180 185 186 179 175 179 179 175 176 181 183 181 191 188 190 191 188 179 179 173
339 329 230 281 302 324 326 329 330 332 335 335 332 319 311 292 257 226 199 187 193 183 178 179 180 183 183 182 178 171 177 176 179 179 182 185 187 186 42 355 187 189 169 181
284 295 275 273 290 298 316 318 321 326 331 331 338 332 321 304 277 230 202 192 195 189 184 175 179 182 181 182 180 177 178 176 175 180 182 184 187 192 196 174 178 202 185 196
299 297 283 294 293 308 306 310 312 319 328 338 340 340 338 330 297 230 209 202 202 192 184 177 178 186 181 181 180 179 180 171 175 184 186 187 189 193 197 193 198 203 207 213
297 286 288 294 294 292 297 312 313 321 329 334 339 346 348 346 343 298 241 207 190 188 185 186 183 186 179 181 179 178 178 181 186 184 186 189 190 196 200 200 200 197 183 188
294 287 285 284 284 286 289 304 305 311 323 330 335 342 345 346 343 343 266 201 177 187 185 187 190 183 179 180 177 179 183 177 181 181 180 185 192 199 201 206 205 204 197 200
281 279 276 273 274 280 286 296 296 300 312 320 330 333 341 352 355 3 355 262 228 209 197 189 189 178 179 179 178 179 182 176 185 184 186 188 191 199 201 203 207 210 212 205
288 266 267 267 268 274 280 285 288 291 302 314 320 328 336 345 350 344 345 337 255 226 206 197 188 182 183 178 179 180 184 179 186 193 191 192 193 195 198 202 205 208 212 203
324 307 280 255 254 261 270 280 282 285 293 304 313 321 322 329 339 349 351 3 358 241 222 214 175 177 186 185 176 178 184 184 189 193 194 194 189 195 200 205 208 209 209 202
340 335 316 262 244 247 263 273 281 283 290 296 306 310 316 325 343 347 350 355 6 342 317 266 186 192 190 181 195 183 183 186 192 192 191 195 200 200 202 206 210 212 212 211
344 340 346 315 254 253 260 269 275 278 286 289 295 298 306 316 330 334 335 335 349 347 316 302 211 201 197 183 190 196 188 189 186 192 195 198 201 205 205 207 208 214 216 215
346 354 349 1 312 284 286 279 275 276 283 289 290 280 292 297 314 316 302 304 322 341 308 322 220 212 216 162 196 202 194 190 191 187 197 201 203 201 204 208 213 212 219 220
351 1 359 357 352 351 337 312 302 306 297 286 286 279 273 270 284 302 312 12 304 325 303 310 335 167 179 182 204 209 216 201 192 192 192 196 209 210 207 204 206 210 215 218
348 1 5 3 11 2 358 350 331 329 332 323 297 289 279 279 267 236 260 278 267 301 306 316 306 194 140 161 158 115 131 270 225 214 212 203 208 212 208 210 204 204 211 209
352 356 13 13 14 6 355 347 345 347 343 338 333 329 322 253 249 307 287 273 269 258 274 289 297 298 118 134 160 224 101 91 276 283 249 228 223 218 215 208 207 203 205 207
358 4 2 14 2 7 0 358 351 357 354 345 331 338 335 326 298 276 281 278 274 280 260 275 287 235 164 120 112 107 107 110 115 59 310 279 253 241 224 211 204 198 203 218
357 4 9 12 3 6 9 5 8 11 2 351 333 336 331 328 315 295 275 264 260 258 277 277 300 301 235 143 129 128 120 105 67 73 30 358 37 329 340 327 169 143 150 185